User: anonymous   Login
Location: Bakov nad Jizerou
(50.4784°N, 14.9394°E)
Time: 17:05:14
(UTC+00:00)
Language:

ARIANE 5 R/B - Orbit

View from above orbital plane
View from above orbital plane
View from above satellite
View from above satellite

Ground track
Ground track

The orbit data is extracted from the following two-line orbital elements,

1 36125U 09073B   21259.88703006 0.00000030  00000-0  42220-5 0    08
2 36125  98.1427 327.7841 0025478   9.7492 350.2507 14.77178234    05
Epoch (UTC): 16 September 2021 21:17:19
Eccentricity: 0.0025478
inclination: 98.1427°
perigee height: 620 km
apogee height: 656 km
right ascension of ascending node: 327.7841°
argument of perigee: 9.7492°
revolutions per day: 14.77178234
mean anomaly at epoch: 350.2507°
orbit number at epoch: 0

The dashed part of the orbit path shows where the satellite is in the earth's shadow,  

DLR